Location: Chuathbaluk
(61.5726°N, 159.2454°W)
Time: 12:25:44
(UTC+00:00)

Envisat - Visible Passes

Search period start: 28 October 2020 00:00
Search period end: 07 November 2020 00:00
Orbit: 764 x 766 km, 98.1° (Epoch: 28 October)

Date Brightness Start Highest point End Pass type
(mag) Time Alt. Az. Time Alt. Az. Time Alt. Az.
28 Oct 4.9 04:23:35 10° SSW 04:28:12 34° W 04:32:51 10° NNW visible
28 Oct 6.5 14:44:01 10° ENE 14:45:16 11° ENE 14:46:30 10° E visible
28 Oct 4.4 16:20:50 10° NNE 16:25:43 43° E 16:30:33 10° S visible
29 Oct 3.8 03:46:07 10° S 03:51:07 57° WSW 03:56:10 10° NNW visible
29 Oct 6.3 05:28:32 10° WSW 05:31:18 14° W 05:34:04 10° NW visible
29 Oct 5.4 15:44:16 10° NNE 15:48:33 26° E 15:52:48 10° SE visible
30 Oct 5.5 04:49:49 10° SW 04:53:55 24° W 04:58:03 10° NW visible
30 Oct 6.1 15:08:06 10° NE 15:11:12 16° E 15:14:17 10° ESE visible
30 Oct 3.6 16:46:13 10° NNE 16:51:17 63° ESE 16:56:20 10° S visible
31 Oct 4.6 04:11:57 10° SSW 04:16:43 40° W 04:21:31 10° NNW visible
31 Oct 4.7 16:09:30 10° NNE 16:14:15 37° E 16:18:57 10° SSE visible
01 Nov 3.5 03:34:38 10° S 03:39:42 67° WSW 03:44:48 10° NNW visible
01 Nov 6.0 05:16:27 10° WSW 05:19:44 17° W 05:23:01 10° NW visible
01 Nov 5.6 15:33:01 10° NE 15:37:02 23° E 15:41:01 10° SE visible
01 Nov 3.1 17:11:38 10° NNE 17:16:47 88° ESE 17:21:53 10° SSW visible
02 Nov 5.3 04:38:04 10° SSW 04:42:24 28° W 04:46:47 10° NNW visible
02 Nov 6.3 14:57:06 10° NE 14:59:38 14° ENE 15:02:09 10° ESE visible
02 Nov 3.9 16:34:50 10° NNE 16:39:51 54° E 16:44:50 10° S visible
03 Nov 4.2 04:00:22 10° S 04:05:15 46° W 04:10:11 10° NNW visible
03 Nov 6.4 05:43:55 10° W 05:45:38 12° WNW 05:47:22 10° NW visible
03 Nov 5.0 15:58:11 10° NNE 16:02:46 32° E 16:07:18 10° SSE visible
04 Nov 3.3 03:23:11 10° SSE 03:28:17 77° WSW 03:33:26 10° NNW visible
04 Nov 5.8 05:04:30 10° SW 05:08:11 20° W 05:11:52 10° NW visible
04 Nov 5.8 15:21:48 10° NE 15:25:30 20° E 15:29:09 10° SE visible
04 Nov 3.3 17:00:15 10° NNE 17:05:23 77° ESE 17:10:29 10° SSW visible
05 Nov 5.0 04:26:22 10° SSW 04:30:55 32° W 04:35:30 10° NNW visible
05 Nov 6.4 14:46:20 10° ENE 14:48:02 11° ENE 14:49:44 10° E visible
05 Nov 4.2 16:23:29 10° NNE 16:28:25 46° E 16:33:19 10° S visible
06 Nov 3.9 03:48:50 10° S 03:53:50 54° W 03:58:50 10° NNW visible
06 Nov 6.3 05:31:30 10° WSW 05:34:02 14° WNW 05:36:36 10° NW visible
06 Nov 5.2 15:46:54 10° NNE 15:51:16 28° E 15:55:36 10° SSE visible
06 Nov 3.0 17:25:43 10° NNE 17:30:50 76° WNW 17:35:56 10° SSW visible
